timestamp,wind_dir_avg,wind_spd_avg,wind_spd_max_dir,wind_spd_gust,battery_voltage,lat,long
2021-03-08 00:04:01+00:00,266.0,5.86,266.0,6.55,12.57,47.59359,-54.27349
2021-03-08 00:14:01+00:00,265.0,7.17,269.0,9.0,12.49,47.59359,-54.27349
2021-03-08 00:24:01+00:00,261.0,5.69,262.0,8.6,12.49,47.59359,-54.27349
2021-03-08 00:34:01+00:00,267.0,5.62,263.0,6.73,12.49,47.59359,-54.27349
2021-03-08 00:44:01+00:00,274.0,6.24,272.0,7.74,12.49,47.59359,-54.27349
2021-03-08 00:54:01+00:00,272.0,6.06,277.0,7.58,12.49,47.59359,-54.27349
2021-03-08 01:04:01+00:00,280.0,5.05,278.0,5.76,12.49,47.59359,-54.27349
2021-03-08 01:14:01+00:00,285.0,4.78,291.0,5.39,12.41,47.59359,-54.27349
2021-03-08 01:24:01+00:00,288.0,4.26,292.0,4.73,12.41,47.59359,-54.27349
2021-03-08 01:34:01+00:00,278.0,4.26,281.0,4.93,12.41,47.59359,-54.27349
2021-03-08 01:44:01+00:00,290.0,4.17,296.0,4.69,12.41,47.59359,-54.27349
2021-03-08 01:54:01+00:00,296.0,4.96,288.0,5.69,12.41,47.59359,-54.27349
2021-03-08 02:04:01+00:00,293.0,5.03,293.0,5.51,12.41,47.59359,-54.27349
2021-03-08 02:14:01+00:00,292.0,4.98,300.0,5.7,12.41,47.59359,-54.27349
2021-03-08 02:24:01+00:00,304.0,4.88,305.0,5.66,12.41,47.59359,-54.27349
2021-03-08 02:34:01+00:00,306.0,4.74,306.0,5.46,12.41,47.59359,-54.27349
2021-03-08 02:44:01+00:00,302.0,5.41,302.0,5.97,12.41,47.59359,-54.27349
2021-03-08 02:54:01+00:00,282.0,4.85,283.0,5.37,12.41,47.59359,-54.27349
2021-03-08 03:04:01+00:00,286.0,4.2,287.0,4.55,12.41,47.59359,-54.27349
2021-03-08 03:14:01+00:00,273.0,4.16,271.0,4.65,12.41,47.59359,-54.27349
2021-03-08 03:24:01+00:00,282.0,3.71,279.0,4.05,12.41,47.59359,-54.27349
2021-03-08 03:34:01+00:00,287.0,4.09,284.0,4.71,12.41,47.59359,-54.27349
2021-03-08 03:44:01+00:00,322.0,2.66,302.0,4.25,12.41,47.59359,-54.27349
2021-03-08 03:54:01+00:00,333.0,3.86,325.0,4.35,12.41,47.59359,-54.27349
2021-03-08 04:04:01+00:00,334.0,4.92,338.0,5.66,12.41,47.59359,-54.27349
2021-03-08 04:14:01+00:00,322.0,4.91,324.0,5.57,12.41,47.59359,-54.27349
2021-03-08 04:24:01+00:00,318.0,5.69,320.0,6.33,12.41,47.59359,-54.27349
2021-03-08 04:34:01+00:00,318.0,6.48,321.0,7.08,12.41,47.59359,-54.27349
2021-03-08 04:44:01+00:00,314.0,6.86,305.0,8.66,12.41,47.59359,-54.27349
2021-03-08 04:54:01+00:00,313.0,6.06,320.0,6.85,12.41,47.59359,-54.27349
2021-03-08 05:04:01+00:00,309.0,6.21,299.0,7.72,12.41,47.59359,-54.27349
2021-03-08 05:14:01+00:00,319.0,6.02,318.0,7.96,12.41,47.59359,-54.27349
2021-03-08 05:24:01+00:00,320.0,5.57,322.0,6.23,12.41,47.59359,-54.27349
2021-03-08 05:34:01+00:00,321.0,5.5,323.0,6.25,12.41,47.59359,-54.27349
2021-03-08 05:44:01+00:00,323.0,5.63,320.0,6.83,12.41,47.59359,-54.27349
2021-03-08 05:54:01+00:00,325.0,6.08,329.0,6.82,12.41,47.59359,-54.27349
2021-03-08 06:04:01+00:00,321.0,5.66,321.0,6.87,12.41,47.59359,-54.27349
2021-03-08 06:14:01+00:00,330.0,5.55,326.0,6.24,12.33,47.59359,-54.27349
2021-03-08 06:24:01+00:00,341.0,5.23,342.0,6.0,12.33,47.59359,-54.27349
2021-03-08 06:34:01+00:00,334.0,5.81,326.0,6.64,12.33,47.59359,-54.27349
2021-03-08 06:44:01+00:00,324.0,6.97,326.0,7.61,12.33,47.59359,-54.27349
2021-03-08 06:54:01+00:00,327.0,6.26,331.0,7.0,12.33,47.59359,-54.27349
2021-03-08 07:04:01+00:00,332.0,5.96,330.0,7.8,12.33,47.59359,-54.27349
2021-03-08 07:14:01+00:00,327.0,6.53,331.0,7.48,12.33,47.59359,-54.27349
2021-03-08 07:24:01+00:00,330.0,5.83,328.0,6.87,12.33,47.59359,-54.27349
2021-03-08 07:34:01+00:00,321.0,5.92,323.0,6.48,12.33,47.59359,-54.27349
2021-03-08 07:44:01+00:00,324.0,4.91,321.0,5.42,12.33,47.59359,-54.27349
2021-03-08 07:54:01+00:00,323.0,5.01,322.0,6.38,12.33,47.59359,-54.27349
2021-03-08 08:04:01+00:00,334.0,4.07,334.0,4.49,12.33,47.59359,-54.27349
2021-03-08 08:14:01+00:00,315.0,2.34,320.0,3.25,12.25,47.59359,-54.27349
2021-03-08 08:24:01+00:00,344.0,3.69,347.0,4.31,12.25,47.59359,-54.27349
2021-03-08 08:34:01+00:00,345.0,3.37,350.0,4.09,12.25,47.59359,-54.27349
2021-03-08 08:44:01+00:00,327.0,3.67,328.0,4.3,12.25,47.59359,-54.27349
2021-03-08 08:54:01+00:00,346.0,4.22,346.0,4.86,12.25,47.59359,-54.27349
2021-03-08 09:04:01+00:00,344.0,3.96,341.0,4.41,12.25,47.59359,-54.27349
2021-03-08 09:14:01+00:00,341.0,2.63,343.0,3.49,12.25,47.59359,-54.27349
2021-03-08 09:24:01+00:00,335.0,3.15,338.0,3.79,12.25,47.59359,-54.27349
2021-03-08 09:34:01+00:00,345.0,4.12,348.0,4.69,12.25,47.59359,-54.27349
2021-03-08 09:44:01+00:00,354.0,3.4,359.0,4.37,12.25,47.59359,-54.27349
2021-03-08 09:54:01+00:00,284.0,2.79,284.0,3.36,12.25,47.59359,-54.27349
2021-03-08 10:04:01+00:00,109.0,2.77,102.0,5.43,12.25,47.59359,-54.27349
2021-03-08 10:14:01+00:00,48.0,4.66,54.0,5.86,12.25,47.59359,-54.27349
2021-03-08 10:24:01+00:00,22.0,3.96,50.0,5.77,12.25,47.59359,-54.27349
2021-03-08 10:34:01+00:00,10.0,3.55,52.0,5.61,12.25,47.59359,-54.27349
2021-03-08 10:44:01+00:00,358.0,3.68,359.0,4.37,12.25,47.59359,-54.27349
2021-03-08 10:54:01+00:00,356.0,3.72,352.0,4.23,12.25,47.59359,-54.27349
2021-03-08 11:04:01+00:00,353.0,4.19,356.0,5.1,12.25,47.59359,-54.27349
2021-03-08 11:14:01+00:00,347.0,4.89,346.0,6.08,13.92,47.59359,-54.27349
2021-03-08 11:24:01+00:00,346.0,4.97,349.0,5.74,13.92,47.59359,-54.27349
2021-03-08 11:34:01+00:00,354.0,4.92,354.0,5.7,13.92,47.59359,-54.27349
2021-03-08 11:44:01+00:00,346.0,4.44,347.0,5.43,13.92,47.59359,-54.27349
2021-03-08 11:54:01+00:00,340.0,4.35,346.0,5.19,13.92,47.59359,-54.27349
2021-03-08 12:04:01+00:00,344.0,2.93,351.0,3.92,13.92,47.59359,-54.27349
2021-03-08 13:14:01+00:00,336.0,2.19,322.0,2.85,14.24,47.59359,-54.27349
2021-03-08 13:24:01+00:00,339.0,3.38,339.0,5.09,14.24,47.59359,-54.27349
2021-03-08 13:34:01+00:00,336.0,6.08,333.0,6.54,14.24,47.59359,-54.27349
2021-03-08 13:44:01+00:00,332.0,5.8,327.0,7.29,14.24,47.59359,-54.27349
2021-03-08 13:54:01+00:00,327.0,5.37,324.0,6.07,14.24,47.59359,-54.27349
2021-03-08 14:04:01+00:00,338.0,5.8,334.0,6.57,14.24,47.59359,-54.27349
2021-03-08 14:14:01+00:00,351.0,7.21,347.0,8.81,13.68,47.59359,-54.27349
2021-03-08 14:24:01+00:00,337.0,6.84,336.0,7.7,13.68,47.59359,-54.27349
2021-03-08 14:34:01+00:00,336.0,7.06,335.0,8.15,13.68,47.59359,-54.27349
2021-03-08 14:44:01+00:00,328.0,7.01,326.0,7.96,13.68,47.59359,-54.27349
2021-03-08 14:54:01+00:00,349.0,6.93,349.0,7.79,13.68,47.59359,-54.27349
2021-03-08 15:04:01+00:00,333.0,6.88,334.0,7.69,13.68,47.59359,-54.27349
2021-03-08 15:14:01+00:00,334.0,6.52,332.0,7.43,13.6,47.59359,-54.27349
2021-03-08 15:24:01+00:00,341.0,6.42,344.0,6.85,13.6,47.59359,-54.27349
2021-03-08 15:34:01+00:00,342.0,6.51,337.0,7.28,13.6,47.59359,-54.27349
2021-03-08 15:44:01+00:00,343.0,6.71,344.0,7.8,13.6,47.59359,-54.27349
2021-03-08 15:54:01+00:00,339.0,6.72,335.0,7.39,13.6,47.59359,-54.27349
2021-03-08 16:04:01+00:00,346.0,6.53,350.0,7.33,13.6,47.59359,-54.27349
2021-03-08 16:14:01+00:00,330.0,5.85,328.0,7.1,14.4,47.59359,-54.27349
2021-03-08 16:24:01+00:00,326.0,4.89,328.0,5.75,14.4,47.59359,-54.27349
2021-03-08 16:34:01+00:00,344.0,4.74,344.0,5.52,14.4,47.59359,-54.27349
2021-03-08 16:44:01+00:00,345.0,4.92,341.0,5.44,14.4,47.59359,-54.27349
2021-03-08 16:54:01+00:00,333.0,5.27,329.0,6.09,14.4,47.59359,-54.27349
2021-03-08 17:04:01+00:00,327.0,5.16,331.0,6.03,14.4,47.59359,-54.27349
2021-03-08 17:14:01+00:00,350.0,4.05,347.0,5.14,14.24,47.59359,-54.27349
2021-03-08 17:24:01+00:00,346.0,6.2,346.0,6.84,14.24,47.59359,-54.27349
2021-03-08 17:34:01+00:00,345.0,5.74,349.0,6.66,14.24,47.59359,-54.27349
2021-03-08 17:44:01+00:00,341.0,5.18,342.0,5.83,14.24,47.59359,-54.27349
2021-03-08 17:54:01+00:00,350.0,5.63,354.0,6.56,14.24,47.59359,-54.27349
2021-03-08 18:04:01+00:00,341.0,4.77,338.0,5.48,14.24,47.59359,-54.27349
2021-03-08 18:14:01+00:00,346.0,4.45,347.0,5.77,14.16,47.59359,-54.27349
2021-03-08 18:24:01+00:00,4.0,5.55,3.0,6.05,14.16,47.59359,-54.27349
2021-03-08 18:34:01+00:00,6.0,3.98,8.0,4.45,14.16,47.59359,-54.27349
2021-03-08 18:44:01+00:00,1.0,5.63,4.0,6.52,14.16,47.59359,-54.27349
2021-03-08 18:54:01+00:00,354.0,5.34,349.0,6.23,14.16,47.59359,-54.27349
2021-03-08 19:04:01+00:00,335.0,5.08,324.0,6.07,14.16,47.59359,-54.27349
2021-03-08 19:14:01+00:00,351.0,4.48,345.0,5.15,13.84,47.59359,-54.27349
2021-03-08 19:24:01+00:00,357.0,5.09,353.0,5.83,13.84,47.59359,-54.27349
2021-03-08 19:34:01+00:00,7.0,4.24,348.0,4.86,13.84,47.59359,-54.27349
2021-03-08 19:44:01+00:00,344.0,5.41,334.0,6.26,13.84,47.59359,-54.27349
2021-03-08 19:54:01+00:00,357.0,5.33,326.0,6.8,13.84,47.59359,-54.27349
2021-03-08 20:04:01+00:00,354.0,5.48,338.0,6.44,13.84,47.59359,-54.27349
2021-03-08 20:14:01+00:00,3.0,4.29,325.0,5.38,13.92,47.59359,-54.27349
2021-03-08 20:24:01+00:00,17.0,5.06,358.0,6.06,13.92,47.59359,-54.27349
2021-03-08 20:34:01+00:00,3.0,4.75,13.0,6.29,13.92,47.59359,-54.27349
2021-03-08 20:44:01+00:00,6.0,4.49,327.0,5.6,13.92,47.59359,-54.27349
2021-03-08 20:54:01+00:00,28.0,4.73,26.0,5.54,13.92,47.59359,-54.27349
2021-03-08 21:04:01+00:00,22.0,5.25,26.0,5.62,13.92,47.59359,-54.27349
2021-03-08 21:14:01+00:00,13.0,4.46,13.0,4.96,13.53,47.59359,-54.27349
2021-03-08 21:24:01+00:00,25.0,4.63,26.0,5.02,13.53,47.59359,-54.27349
2021-03-08 21:34:01+00:00,28.0,3.15,23.0,3.63,13.53,47.59359,-54.27349
2021-03-08 21:44:01+00:00,18.0,3.83,29.0,4.29,13.53,47.59359,-54.27349
2021-03-08 21:54:01+00:00,27.0,4.31,31.0,4.83,13.53,47.59359,-54.27349
2021-03-08 22:04:01+00:00,19.0,5.03,17.0,5.58,13.53,47.59359,-54.27349
2021-03-08 22:14:01+00:00,16.0,4.48,20.0,5.29,12.81,47.59359,-54.27349
2021-03-08 22:24:01+00:00,24.0,5.39,23.0,5.98,12.81,47.59359,-54.27349
2021-03-08 22:34:01+00:00,10.0,4.89,30.0,5.67,12.81,47.59359,-54.27349
2021-03-08 22:44:01+00:00,24.0,5.26,23.0,6.01,12.81,47.59359,-54.27349
2021-03-08 22:54:01+00:00,26.0,4.56,30.0,5.54,12.81,47.59359,-54.27349
2021-03-08 23:04:01+00:00,23.0,3.83,22.0,4.23,12.81,47.59359,-54.27349
2021-03-08 23:14:01+00:00,13.0,3.8,23.0,4.24,12.57,47.59359,-54.27349
2021-03-08 23:24:01+00:00,30.0,4.07,34.0,4.5,12.57,47.59359,-54.27349
2021-03-08 23:34:01+00:00,20.0,4.51,20.0,5.17,12.57,47.59359,-54.27349
2021-03-08 23:44:01+00:00,356.0,5.87,13.0,6.55,12.57,47.59359,-54.27349
2021-03-08 23:54:01+00:00,356.0,6.18,354.0,6.77,12.57,47.59359,-54.27349
